Hourly Data Report for July 11, 2021

RANKIN INLET A
NUNAVUT
Current Station Operator: NAVCAN

62°48'38.000" N
92°06'53.000" W
32.30 m
2303405
71083
YRT

Download Data

Hourly Data (July 2021)
Hourly Data Report for July 11, 2021
TIME
LST
Temp Definition
°C
Dew Point Definition
°C
Rel Hum Definition
%
Precip. Amount Definition
mm

Wind Dir Definition
10's deg

Wind Spd Definition
km/h
Visibility Definition
km
Stn Press Definition
kPa
Hmdx Definition


Wind Chill Definition


Weather Definition


00:00 7.2 6.6 96   19 19 4.8 100.97     Fog
01:00 7.5 4.6 82   17 18 24.1 100.91     LegendNANA
02:00 7.3 4.6 83   18 16 24.1 100.87     LegendNANA
03:00 7.1 4.9 86   19 11 24.1 100.82     Cloudy
04:00 7.1 5.4 89   19 17 24.1 100.74     LegendNANA
05:00 7.0 5.4 89   18 17 24.1 100.71     LegendNANA
06:00 7.5 5.2 85   16 13 16.1 100.64     Mostly Cloudy
07:00 7.9 5.4 84   18 18 16.1 100.62     LegendNANA
08:00 7.9 5.6 85   18 15 16.1 100.58     LegendNANA
09:00 8.6 5.8 83   19 13 16.1 100.54     Mostly Cloudy
10:00 9.3 6.0 79   16 18 16.1 100.44     LegendNANA
11:00 12.2 7.1 71   16 19 24.1 100.38     LegendNANA
12:00 13.1 7.9 71   15 19 24.1 100.32     Mainly Clear
13:00 14.3 9.6 73   15 19 24.1 100.31     LegendNANA
14:00 12.2 7.2 71   11 14 24.1 100.25     LegendNANA
15:00 11.9 6.9 71   13 15 24.1 100.21     Mostly Cloudy
16:00 11.5 6.7 72   14 16 24.1 100.20     LegendNANA
17:00 8.8 5.2 78   11 23 16.1 100.10     LegendNANA
18:00 8.0 5.9 87   12 22 16.1 100.02     Mostly Cloudy
19:00 6.7 6.1 96   12 25 0.6 99.95     Fog
20:00 6.7 6.3 98   12 23 0.8 99.89     Fog
21:00 6.9 6.2 95   11 23 1.6 99.76     Fog
22:00 7.3 6.2 92   12 24 24.1 99.72     LegendNANA
23:00 7.1 6.0 93   11 22 16.1 99.57     LegendNANA

Notes on Data Quality.

Legend

  • E = Estimated
  • M = Missing
  • NA = Not Available*
  • [empty] = Indicates an unobserved value
Date modified: